Regional Weather Roundup
Issued by NWS

Home | Current Version | Previous Version | Text Only | Print | Product List | Glossary Off
Versions: 1 2 3 4 5 6 7 8 9 10 11 12 13 14 15 16 17 18 19 20 21 22 23 24 25 26 27 28 29 30 31 32 33 34 35 36 37 38 39 40 41 42 43 44 45 46 47 48 49 50

000
ASUS43 KLOT 031712
RWRIL

ILLINOIS REGIONAL WEATHER ROUNDUP
NATIONAL WEATHER SERVICE CHICAGO/ROMEOVILLE IL
1200 PM CDT FRI JUL 03 2015

NOTE: "FAIR" INDICATES FEW OR NO CLOUDS BELOW 12,000 FEET WITH NO
SIGNIFICANT WEATHER AND/OR OBSTRUCTIONS TO VISIBILITY.

* THESE STATIONS ARE NOT UNDER NWS QUALITY CONTROL. THEY ALSO MAY NOT
  REPORT WEATHER SUCH AS PRECIPITATION OR FOG.

ILZ001-002-007-009-015-016-024-031800-
NORTHWEST ILLINOIS

CITY           SKY/WX    TMP DP  RH WIND       PRES   REMARKS
MOLINE         SUNNY     74  59  59 N3        29.97S
STERLING*      MOSUNNY   73  61  64 CALM      29.98S
SAVANNA*       SUNNY     73  57  57 N3        29.99S
$$

ILZ003-004-008-010-011-017-018-031800-
NORTH CENTRAL ILLINOIS

CITY           SKY/WX    TMP DP  RH WIND       PRES   REMARKS
ROCKFORD       PTSUNNY   74  57  55 SW3       29.99F
FREEPORT*      PTSUNNY   70  56  61 CALM      30.00F
ROCHELLE*      MOSUNNY   71  56  57 CALM      29.99S
DE KALB*       MOSUNNY   69  55  61 CALM      29.99S
PERU*          MOSUNNY   73  57  57 NE3       29.98S
$$

ILZ005-006-012>014-019>023-031800-
NORTHEAST ILLINOIS

CITY           SKY/WX    TMP DP  RH WIND       PRES   REMARKS
CHICAGO-OHARE  CLOUDY    73  54  51 SE6       29.97S
CHICAGO-MIDWAY CLOUDY    75  55  49 NE8       29.97S
AURORA         PTSUNNY   75  56  51 NE5       29.98S
LANSING*       PTSUNNY   73  52  46 E6        29.97S
JOLIET*        PTSUNNY   74  58  58 NE3       29.97S
WAUKEGAN       MOSUNNY   69  57  65 E6        29.98S
DUPAGE AIRPORT PTSUNNY   73  55  53 VRB3      29.97F
KANKAKEE*      MOSUNNY   74  57  56 E8        29.96S
WHEELING       MOSUNNY   73  54  51 VRB3      29.99S
MORRIS*        PTSUNNY   74  56  52 NE5       29.96S
ROMEOVILLE*    PTSUNNY   73  54  51 E7        29.98S
NORTHERLY ISL    N/A     66  58  75 NE7         N/A
$$

LMZ740>746-031800-
SOUTHERN LAKE MICHIGAN

STATION/POSITION SKY/WX   TEMP    WIND        PRES    VSBY  WAVE
                          AIR SEA DIR/SP/G                  HT/PER
                          (F)     (DEG/KT/KT) (MB)    (MI)  (FT/S)
HARRISON CRIB              61      20/  5/  6   N/A
BURNHAM HARBOR             66      30/  6/  7   N/A
CALUMET HARBOR             65      20/  6/  8   N/A
BURNS HARBOR               64      10/  8/  9 1015.6S
MICHIGAN CITY              64     340/  7/  8   N/A
MICHIGAN CITY 6N           63 64   10/  8/ 10   N/A           1/ 4
ST. JOSEPH                 63 63                N/A           1
$$

ILZ025>027-034>036-040-047-049-050-058-095>099-031800-
WEST-CENTRAL ILLINOIS

CITY           SKY/WX    TMP DP  RH WIND       PRES   REMARKS
QUINCY         SUNNY     75  63  66 N10       29.96S
GALESBURG*     SUNNY     73  62  68 NE6       29.97S
MACOMB*        SUNNY     73  63  71 N3        29.98S
JACKSONVILLE*  PTSUNNY   74  66  76 N12       29.95S
PITTSFIELD*    MOSUNNY   75  64  67 N6        29.96S
$$

ILZ028>032-037-038-041>044-048-051>054-059>061-031800-
CENTRAL ILLINOIS

CITY           SKY/WX    TMP DP  RH WIND       PRES   REMARKS
PONTIAC        PTSUNNY   73  61  64 NE6       29.97S
BLOOMINGTON    MOSUNNY   72  64  75 NE8       29.97R
DECATUR        PTSUNNY   74  65  73 N7        29.94R
PEORIA         SUNNY     76  61  59 SE3       29.96S
LACON*         SUNNY     75  58  55 NE3       29.96R
LINCOLN*       PTSUNNY   73  63  72 N5        29.95S
SPRINGFIELD    CLOUDY    72  63  73 N7        29.95R
TAYLORVILLE    CLOUDY    70  64  83 N6        29.94S
$$

ILZ033-039-045-046-055>057-062-063-031800-
EAST-CENTRAL ILLINOIS

CITY           SKY/WX    TMP DP  RH WIND       PRES   REMARKS
CHAMPAIGN      PTSUNNY   74  64  71 NE7       29.94R
DANVILLE*      FAIR      73  65  74 NE7       29.91F
RANTOUL*       CLOUDY    75  65  69 NE7       29.94S
MATTOON        CLOUDY    75  67  76 N8        29.92R
PARIS*         MOSUNNY   73  66  78 NE7       29.93R
$$

ILZ079-100>102-031800-
SOUTHWEST ILLINOIS

CITY           SKY/WX    TMP DP  RH WIND       PRES   REMARKS
ALTON          PTSUNNY   75  72  88 NW8       29.93S
BELLEVILLE     PTSUNNY   78  70  76 NE6       29.91R HX  80
CAHOKIA*       PTSUNNY   79  65  62 N9        29.92S HX  81
SPARTA*        PTSUNNY   77  66  68 NW3       29.93S
$$

ILZ064>066-069>071-074>076-080>082-084>086-088>090-092>094-031800-
SOUTH-CENTRAL ILLINOIS

CITY           SKY/WX    TMP DP  RH WIND       PRES   REMARKS
CARBONDALE     CLOUDY    78  66  66 NW3       29.90F HX  80
CAIRO*         PTSUNNY   78  70  77 SW3       29.90F HX  80
EFFINGHAM*     CLOUDY    76  64  65 N3        29.93S
MARION         PTSUNNY   79  68  69 NW6       29.91F HX  81
MT. VERNON     PTSUNNY   79  66  65 W5        29.91S HX  81
CENTRALIA*     MOSUNNY   76  66  71 NW7       29.92S
SALEM*         PTSUNNY   78  69  72 NW7       29.91S HX  80
METROPOLIS*    MOSUNNY   80  70  71 W3        29.90F HX  84
$$

ILZ067-068-072-073-078-083-087-091-031800-
SOUTHEAST ILLINOIS

CITY           SKY/WX    TMP DP  RH WIND       PRES   REMARKS
LAWRENCEVILLE  CLOUDY    76  69  79 N5        29.90R
FLORA*         MOSUNNY   76  68  76 N5        29.91S
FAIRFIELD*     CLOUDY    76  70  81 W3        29.89S
HARRISBURG*    PTSUNNY   78  69  73 NW3       29.91F HX  80
ROBINSON*      CLOUDY    74  67  78 NE3       29.91S
CARMI*         HVY RAIN  75  67  75 NW5       29.89S
$$

ABBREVIATIONS USED IN REMARKS
   TC - TEMPERATURE IN CELSIUS
  WCI - WIND CHILL INDEX
   HX - HEAT INDEX
  VSB - VISIBILITY
$$




USA.gov is the U.S. government's official web portal to all federal, state and local government web resources and services.